Regional Weather Roundup
Issued by NWS

Home | Current Version | Previous Version | Graphics & Text | Print | Product List | Glossary On
Versions: 1 2 3 4 5 6 7 8 9 10 11 12 13 14 15 16 17 18 19 20 21 22 23 24 25 26 27 28 29 30 31 32 33 34 35 36 37 38 39 40 41 42 43 44 45 46 47 48 49 50
106
ASUS44 KJAN 300903
RWRMS

MISSISSIPPI HOURLY WEATHER ROUNDUP
NATIONAL WEATHER SERVICE JACKSON MS
400 AM CDT SAT AUG 30 2014

NOTE: "FAIR: INDICATES FEW OR NO CLOUDS BELOW 12,000 FEET WITH NO
SIGNIFICANT WEATHER AND/OR OBSTRUCTIONS TO VISIBILITY.

MSZ001>002-007>008-010>013-018>021-025>028-034>036-301000-
NORTHWEST MISSISSIPPI

CITY           SKY/WX    TMP DP  RH WIND       PRES   REMARKS
CLARKSDALE     FAIR      77  75  94 CALM      30.00S
CLEVELAND      PTSUNNY   76  75  95 S3        29.99S
GREENWOOD      CLOUDY    77  70  79 S5        30.01S
GREENVILLE     LGT RAIN  77  74  90 S3        29.99S
GRENADA        PTSUNNY   77  68  73 CALM      30.02R
OLIVE BRANCH   CLEAR     73  73 100 S6        30.01R
OXFORD         FAIR      75  66  73 SW3       30.04R
TUNICA         PTSUNNY   77  72  83 S6        30.00S
$$

MSZ003>006-009-014>017-022>024-029>033-037>039-301000-
NORTHEAST MISSISSIPPI

CITY           SKY/WX    TMP DP  RH WIND       PRES   REMARKS
BELMONT        FAIR      72  67  84 CALM      30.05R
COLUMBUS AFB   CLOUDY    75  68  79 SE2       30.04R
CORINTH          N/A     72  68  88 CALM      30.02S
GOLDN TRIANGLE CLOUDY    75  66  73 S6        30.04S
STARKVILLE     PTSUNNY   73  68  83 CALM      30.04S
TUPELO         CLOUDY    77  67  71 CALM      30.02S
$$

MSZ040-058-301000-
CENTRAL MISSISSIPPI

CITY           SKY/WX    TMP DP  RH WIND       PRES   REMARKS
JACKSON INTL   CLOUDY    76  72  87 SE6       30.02R
JACKSON HAWKNS CLOUDY    77  72  84 S9        30.03R
MERIDIAN KEY   CLOUDY    75  72  90 S3        30.04S
MERIDIAN NAS   CLOUDY    77  71  82 CALM      30.04F
RAYMOND        FAIR      75  70  83 MISG      30.02R
VICKSBURG      LGT RAIN  76  72  87 S5        30.00S
$$

MSZ059>079-301000-
SOUTH MISSISSIPPI

CITY           SKY/WX    TMP DP  RH WIND       PRES   REMARKS
BROOKHAVEN     PTSUNNY   75  73  94 S3        30.05R
COLUMBIA       PTSUNNY   73  73 100 CALM      30.01S
HATTIESBURG    CLOUDY    76  74  93 CALM      30.03S
MCCOMB         CLOUDY    75  73  93 CALM      30.02S
NATCHEZ        CLOUDY    75  72  88 S3        30.02R
PINE BELT      CLOUDY    73  72  94 CALM      30.04S
$$

MSZ080>082-301000-
COASTAL MISSISSIPPI

CITY           SKY/WX    TMP DP  RH WIND       PRES   REMARKS
BILOXI         CLOUDY    83  77  82 S10       30.01S HX  91
PASCAGOULA     CLOUDY    76  75  97 CALM      30.02S
GULFPORT       CLOUDY    82  77  84 S8        30.00S HX  90
$$



USA.gov is the U.S. government's official web portal to all federal, state and local government web resources and services.